Location: Napier
(39.4830°S, 176.9170°E)
Time: 02:10:48
(UTC+13:00)

Helios 1B rocket - Pass Details

Date: 24 January 2019
Orbit: 575 x 585 km, 98.2° (Epoch: 23 February)

Event Time Altitude Azimuth Distance (km) Brightness Sun altitude
Exits shadow 23:01:08 73° 350° (N) 617 2.3 -22.4°
Maximum altitude 23:01:30 83° 283° (WNW) 595 2.4 -22.5°
Drops below altitude 10° 23:05:41 10° 194° (SSW) 1,925 6.0 -23.0°
Sets 23:07:52 0° 193° (SSW) 2,834 7.1 -23.2°
